CW9540 Weather Reports


Display with metric or nautical units.
time (UTC)temp
F
wind
direction
speed
MPH
gust
MPH
rain 1hr
in
rain 24hr
in
rain mn
in
humidity
%
barometer
mb
20260508122504 43 245 3.0 8.0 0.01 0.02 0.02 93 1010.9
20260508121546 42 193 1.0 3.0 0.01 0.02 0.02 94 1011.4
20260508121504 42 204 1.0 3.0 0.01 0.02 0.02 94 1010.5
20260508121003 42 60 0.0 2.0 0.01 0.02 0.02 94 1010.5
20260508120503 42 304 0.0 1.0 0.00 0.01 0.01 94 1010.3
20260508120053 41 0 0.0 2.0 0.00 0.01 0.01 94 1011.0
20260508120004 42 255 1.0 2.0 0.00 0.01 0.01 94 1010.2
20260508115505 42 335 0.0 1.0 0.00 0.01 0.01 94 1010.1
20260508115003 42 329 1.0 2.0 0.00 0.01 0.01 94 1010.1
20260508114553 41 206 0.0 3.0 0.00 0.01 0.01 93 1010.8
20260508114503 41 184 1.0 2.0 0.00 0.01 0.01 94 1010.0
20260508114004 41 181 1.0 3.0 0.00 0.01 0.01 94 1010.0
20260508113504 41 193 1.0 2.0 0.00 0.01 0.01 94 1010.0
20260508113050 41 0 0.0 1.0 0.00 0.01 0.01 94 1010.7
20260508113004 41 252 1.0 1.0 0.00 0.01 0.01 94 1009.9
20260508112503 41 272 1.0 1.0 0.00 0.01 0.01 94 1009.8
20260508112004 41 248 0.0 1.0 0.00 0.01 0.01 94 1009.8
20260508111602 40 0 0.0 1.0 0.00 0.01 0.01 93 1010.4
20260508111504 41 22 0.0 1.0 0.00 0.01 0.01 94 1009.6
20260508111004 41 230 0.0 1.0 0.00 0.01 0.01 94 1009.6
20260508110503 40 231 0.0 1.0 0.00 0.01 0.01 94 1009.5
20260508110049 40 0 0.0 1.0 0.00 0.01 0.01 93 1010.2
20260508110003 40 58 0.0 1.0 0.00 0.01 0.01 94 1009.3
20260508105504 40 342 0.0 1.0 0.00 0.01 0.01 94 1009.4
20260508105004 40 16 0.0 1.0 0.00 0.01 0.01 94 1009.4
20260508104559 40 0 0.0 2.0 0.00 0.01 0.01 93 1010.2
20260508104503 40 319 0.0 1.0 0.00 0.01 0.01 94 1009.3
20260508104004 40 50 1.0 2.0 0.00 0.01 0.01 94 1009.3
20260508103503 40 315 0.0 1.0 0.00 0.01 0.01 94 1009.2
20260508103057 39 0 0.0 1.0 0.00 0.01 0.01 93 1010.1
20260508103003 40 69 0.0 1.0 0.00 0.01 0.01 94 1009.3
20260508102504 40 60 0.0 1.0 0.00 0.01 0.01 94 1009.3
20260508102004 39 3 0.0 1.0 0.00 0.01 0.01 93 1009.3
20260508101553 39 0 0.0 1.0 0.00 0.01 0.01 93 1010.3
20260508101503 39 47 0.0 1.0 0.00 0.01 0.01 93 1009.4
20260508101004 39 31 0.0 1.0 0.00 0.01 0.01 93 1009.4
20260508100504 39 353 0.0 1.0 0.00 0.01 0.01 93 1009.5
20260508100051 39 0 0.0 1.0 0.00 0.01 0.01 93 1010.4
20260508100004 39 27 0.0 1.0 0.00 0.01 0.01 93 1009.6
20260508095503 39 155 0.0 1.0 0.00 0.01 0.01 93 1009.7
20260508095004 39 20 0.0 1.0 0.00 0.01 0.01 93 1009.6
20260508094551 38 0 0.0 1.0 0.00 0.01 0.01 93 1010.6
20260508094503 39 178 0.0 1.0 0.00 0.01 0.01 93 1009.8
20260508094004 39 172 0.0 1.0 0.00 0.01 0.01 93 1009.9
20260508093503 39 277 0.0 1.0 0.00 0.01 0.01 93 1009.9
20260508093055 38 0 0.0 1.0 0.00 0.01 0.01 92 1010.7
20260508093003 39 298 0.0 1.0 0.00 0.01 0.01 93 1009.8
20260508091601 38 206 0.0 1.0 0.00 0.01 0.01 92 1010.7
20260508091504 38 218 0.0 1.0 0.00 0.01 0.01 93 1010.0
20260508091003 38 199 0.0 1.0 0.00 0.01 0.01 93 1010.0
20260508090503 38 225 1.0 1.0 0.00 0.01 0.01 92 1010.0
20260508090059 37 0 0.0 2.0 0.00 0.01 0.01 92 1010.7
20260508090003 38 85 0.0 1.0 0.00 0.01 0.01 92 1009.9
20260508085504 38 199 1.0 2.0 0.00 0.01 0.01 92 1009.9
20260508085003 38 200 1.0 2.0 0.00 0.01 0.01 92 1009.9
20260508084551 38 193 0.0 2.0 0.00 0.01 0.01 91 1010.7
20260508084503 38 198 1.0 2.0 0.00 0.01 0.01 92 1009.9
20260508084004 38 226 1.0 2.0 0.00 0.01 0.01 92 1009.9
20260508083503 38 186 0.0 1.0 0.00 0.01 0.01 91 1009.7
20260508083052 38 178 0.0 1.0 0.00 0.01 0.01 91 1010.6
20260508083004 39 186 1.0 1.0 0.00 0.01 0.01 91 1009.7
20260508082504 39 143 0.0 1.0 0.00 0.01 0.01 91 1009.7
20260508082003 39 143 0.0 1.0 0.00 0.01 0.01 91 1009.7
20260508081605 38 0 0.0 1.0 0.00 0.01 0.01 91 1010.5
20260508081504 39 86 0.0 1.0 0.00 0.01 0.01 91 1009.7
20260508081003 39 140 1.0 1.0 0.00 0.01 0.01 91 1009.7
20260508080503 39 200 0.0 1.0 0.00 0.01 0.01 91 1009.7
20260508080055 39 0 0.0 1.0 0.00 0.01 0.01 90 1010.6
20260508075504 40 195 0.0 1.0 0.00 0.01 0.01 91 1009.7
20260508075003 40 96 0.0 0.0 0.00 0.01 0.01 90 1009.7
20260508074556 40 0 0.0 1.0 0.00 0.01 0.01 90 1010.5
20260508074504 40 15 0.0 1.0 0.00 0.01 0.01 90 1009.6
20260508073503 40 14 0.0 1.0 0.00 0.01 0.01 90 1009.6
20260508073148 40 0 0.0 1.0 0.00 0.01 0.01 90 1010.5
20260508071602 41 0 0.0 1.0 0.00 0.01 0.01 89 1010.6
20260508070059 41 0 0.0 1.0 0.00 0.01 0.01 88 1010.7
20260508070004 42 264 0.0 1.0 0.00 0.01 0.01 89 1009.8
20260508064549 42 72 0.0 1.0 0.00 0.01 0.01 88 1010.5
20260508063047 42 0 0.0 1.0 0.00 0.01 0.01 87 1010.6
20260508061549 43 0 0.0 2.0 0.00 0.01 0.01 87 1010.8
20260508060047 43 0 0.0 2.0 0.00 0.01 0.01 87 1010.9
20260508054551 44 178 1.0 3.0 0.00 0.01 0.01 87 1010.9
20260508053052 44 152 1.0 2.0 0.00 0.01 0.01 87 1011.0
20260508051550 44 216 1.0 2.0 0.00 0.01 0.01 87 1010.9
20260508050051 44 0 0.0 2.0 0.01 0.01 0.01 86 1010.9
20260508044559 44 63 0.0 1.0 0.01 0.01 0.01 85 1010.9
20260508043054 44 0 0.0 2.0 0.01 0.01 0.01 84 1010.9
20260508041551 44 0 0.0 2.0 0.01 0.01 0.01 82 1010.9
20260508040057 45 46 1.0 5.0 0.00 0.00 0.00 79 1010.8
20260508040003 45 347 1.0 3.0 0.00 0.00 0.00 79 1010.0
20260508034549 45 178 1.0 4.0 0.00 0.00 0.00 74 1010.8
20260508033110 46 0 0.0 3.0 0.00 0.00 0.00 73 1010.8
20260508031551 46 331 0.0 3.0 0.00 0.00 0.00 72 1010.6
20260508030106 46 46 1.0 5.0 0.00 0.00 0.00 71 1010.7
20260508024554 46 37 1.0 4.0 0.00 0.00 0.00 69 1010.8
20260508023049 46 327 1.0 4.0 0.00 0.00 0.00 71 1010.7
20260508021548 45 0 1.0 3.0 0.00 0.00 0.00 71 1010.6
20260508014556 45 1 1.0 2.0 0.00 0.00 0.00 70 1010.2
20260508013101 46 0 0.0 1.0 0.00 0.00 0.00 65 1010.1
20260508011554 46 0 0.0 1.0 0.00 0.00 0.00 64 1010.0
20260508010046 47 0 0.0 1.0 0.00 0.00 0.00 60 1009.7
20260508004547 47 0 0.0 1.0 0.00 0.03 0.00 59 1009.7
20260508003050 48 89 0.0 2.0 0.00 0.03 0.00 58 1009.5
20260508001551 48 314 1.0 3.0 0.00 0.03 0.00 54 1009.6
20260508000050 49 347 1.0 2.0 0.00 0.03 0.00 52 1009.3
20260507235004 50 35 1.0 2.0 0.00 0.04 0.00 52 1008.4
20260507234550 50 63 0.0 2.0 0.00 0.07 0.00 51 1009.2
20260507233051 50 0 0.0 4.0 0.00 0.07 0.00 52 1009.3
20260507231550 50 56 1.0 3.0 0.00 0.07 0.00 52 1009.2
20260507230052 51 18 1.0 4.0 0.00 0.07 0.00 53 1009.2
20260507224551 51 1 0.0 4.0 0.00 0.07 0.00 49 1009.2
20260507223048 51 1 1.0 5.0 0.00 0.07 0.00 47 1009.2
20260507221551 51 286 2.0 5.0 0.00 0.07 0.00 48 1009.2
20260507220051 51 1 1.0 5.0 0.00 0.07 0.00 49 1009.3
20260507214555 53 70 3.0 7.0 0.00 0.07 0.00 44 1009.1
20260507213057 54 331 3.0 7.0 0.00 0.07 0.00 43 1009.2
20260507213004 54 338 4.0 7.0 0.00 0.07 0.00 42 1008.3
20260507211554 56 28 2.0 5.0 0.00 0.07 0.00 43 1009.2
20260507211004 53 2 2.0 5.0 0.00 0.07 0.00 49 1008.4
20260507210046 53 46 2.0 6.0 0.00 0.07 0.00 48 1009.3
20260507204548 52 23 2.0 4.0 0.00 0.07 0.00 49 1009.2
20260507203050 53 314 0.0 4.0 0.00 0.07 0.00 51 1009.3
20260507201550 52 11 2.0 7.0 0.00 0.07 0.00 49 1009.3
20260507200046 52 23 2.0 5.0 0.00 0.07 0.00 49 1009.5
20260507195004 53 31 3.0 5.0 0.00 0.07 0.00 50 1008.9
20260507194551 53 25 1.0 5.0 0.00 0.07 0.00 49 1009.7
20260507193047 52 44 2.0 7.0 0.00 0.07 0.00 50 1009.7
20260507191555 52 342 3.0 7.0 0.00 0.07 0.00 53 1009.8
20260507191003 53 30 2.0 3.0 0.00 0.07 0.00 54 1009.0
20260507190048 52 18 2.0 8.0 0.00 0.07 0.00 54 1009.9
20260507184552 54 333 2.0 6.0 0.00 0.07 0.00 48 1009.8
20260507183058 55 46 1.0 5.0 0.00 0.07 0.00 53 1009.7
20260507181551 54 40 2.0 6.0 0.00 0.07 0.00 49 1009.9
20260507180053 56 28 3.0 8.0 0.00 0.07 0.00 47 1010.1
20260507174549 56 25 2.0 7.0 0.00 0.07 0.00 51 1010.1
20260507173058 55 28 2.0 7.0 0.00 0.07 0.00 52 1010.2
20260507171554 56 1 1.0 6.0 0.00 0.07 0.00 47 1010.3
20260507170055 56 54 2.0 7.0 0.00 0.07 0.00 45 1010.4
20260507164553 57 336 2.0 11.0 0.00 0.07 0.00 45 1010.5
20260507163058 55 230 1.0 8.0 0.00 0.07 0.00 52 1010.8
20260507163004 54 326 1.0 5.0 0.00 0.07 0.00 49 1009.8
20260507161555 54 230 4.0 10.0 0.00 0.07 0.00 50 1010.8
20260507160053 54 250 2.0 7.0 0.00 0.07 0.00 53 1011.0
20260507154555 52 203 2.0 7.0 0.00 0.07 0.00 52 1011.1
20260507153101 52 269 3.0 8.0 0.00 0.07 0.00 54 1011.2
20260507151551 50 340 1.0 5.0 0.00 0.07 0.00 57 1011.4
20260507150054 50 178 2.0 6.0 0.00 0.07 0.00 55 1011.4
20260507144553 49 300 2.0 6.0 0.00 0.08 0.00 57 1011.5
20260507143104 49 252 1.0 4.0 0.00 0.08 0.00 61 1011.5
20260507141550 49 46 1.0 4.0 0.00 0.08 0.00 63 1011.7
20260507140046 46 335 1.0 3.0 0.00 0.08 0.00 65 1012.0
20260507134551 45 0 1.0 3.0 0.00 0.09 0.00 63 1012.0
20260507134003 46 335 2.0 3.0 0.00 0.08 0.00 66 1011.3
20260507133050 45 331 0.0 2.0 0.00 0.09 0.00 70 1012.2
20260507131551 44 0 1.0 2.0 0.00 0.09 0.00 73 1012.3
20260507124555 43 15 1.0 3.0 0.00 0.11 0.00 85 1012.1
20260507123051 42 79 1.0 4.0 0.00 0.11 0.00 90 1012.3